Tracking 31027 objects as of 19-Jul-2025
HD Live streaming from Space Station
objects crossing your sky now

OBJECT D

Track OBJECT D now!
10-day predictions


NORAD ID: 51949
Int'l Code: 2022-023D
Perigee: 450.5 km
Apogee: 585.4 km
Inclination: 63.5 °
Period: 94.8 minutes
Semi major axis: 6888 km
RCS: Unknown
Launch date: March 5, 2022
Source: People's Republic of China (PRC)
Launch site: Xichang Space Center, China (XSC)
Your satellite tracking list
KL-BETA B
Track 1 satellite(s)




NASA's NSSDC Master Catalog

Two Line Element Set (TLE):
1 51949U 22023D   25199.83866178  .00013452  35000-7  57271-3 0  9995
2 51949  63.4657 324.8749 0097895 343.6387  16.1571 15.18348950182130
Source of the keplerian elements: AFSPC